Flag for Dominican Republic Weather past 2 weeks in Puerto Plata, Dominican Republic

Now
81 °F

Scattered clouds.


Feels Like: 85 °F
Forecast: 76 / 83 °F
Wind: 12 mph from Southeast

Location: Puerto Plata International

Current Time: Mar 6, 2015 at 10:35:09 AM

Latest Report: Mar 6, 2015 at 10:00 AM


Visibility: N/A

Pressure: 30.12 "Hg

Humidity: 74%

Dew point: 72 °F

Location of Puerto PlataLocation

Historic Weather in Puerto Plata — Graph

°F

Puerto Plata temperature yesterday

Maximum temperature yesterday: 82 °F (at 1:00 PM)
Minimum temperature yesterday: 70 °F (at 2:00 AM)
Average temperature yesterday: 77 °F

Past Weeks' High & Low Weather Summary

 TemperatureHumidityPressure
High88 °F (Feb 26, 2:00 PM)100% (Feb 20, 2:00 AM)30.18 "Hg (Feb 20, 2:00 AM)
Low66 °F (Feb 24, 8:00 AM)52% (Feb 26, 2:00 PM)29.92 "Hg (Feb 25, 4:00 PM)
Average77 °F81%30.05 "Hg
* Reported Feb 19 9:00 AM — Mar 6 9:00 AM, Puerto Plata, Weather by CustomWeather, © 2015

Note: Actual official high and low records may vary slightly from our data, if they occured in-between our weather recording intervals... More about our weather records

Advertising

Puerto Plata weather history for previous 24 hours

 ConditionsComfort  
Time TempWeatherWind HumidityBarometerVisibility
9:00 AM
Fri, Mar 6
75 °FScattered clouds.6 mph78%30.12 "HgN/A
8:00 AM70 °FPassing clouds.No wind94%30.12 "HgN/A
7:00 AM68 °FPassing clouds.No wind100%30.09 "HgN/A
5:00 AM72 °FPassing clouds.No wind94%30.07 "HgN/A
2:00 AM73 °FPassing clouds.No wind89%30.09 "HgN/A
11:00 PM
Thu, Mar 5
73 °FPassing clouds.No wind89%30.12 "HgN/A
8:00 PM77 °FPassing clouds.12 mph79%30.07 "HgN/A
7:00 PM79 °FPassing clouds.12 mph74%30.04 "HgN/A
6:00 PM81 °FPassing clouds.12 mph74%30.04 "HgN/A
5:00 PM82 °FPassing clouds.12 mph66%30.01 "HgN/A
4:00 PM82 °FPassing clouds.12 mph66%30.04 "HgN/A
3:00 PM82 °FScattered clouds.12 mph62%30.04 "HgN/A
2:00 PM81 °FScattered clouds.6 mph70%30.07 "HgN/A
1:00 PM82 °FPassing clouds.22 mph66%30.09 "HgN/A
12:00 PM81 °FScattered clouds.12 mph74%30.15 "HgN/A
11:02 AMN/ALight rain.23 mphN/A30.12 "Hg5 mi
10:00 AM79 °FPassing clouds.7 mph74%30.12 "HgN/A
Weather by CustomWeather, © 2015

See weather overviewHow to use our weather pages